User: anonymous   Login
Location: Fort Wayne
(41.1310°N, 85.1290°W)
Time: 03:18:57
(UTC-04:00)
Language:

Cosmos 1000 Rocket - Orbit

View from above orbital plane
View from above orbital plane
View from above satellite
View from above satellite

Ground track
Ground track

The orbit data is extracted from the following two-line orbital elements,

1 10777U 78034B   16211.35121308  .00000012  00000-0 -38019-5 0  9998
2 10777  82.9436 110.7069 0026865  25.0494 112.8693 13.77381646925946
Epoch (UTC): 29 July 2016 08:25:44
Eccentricity: 0.0026865
inclination: 82.9436°
perigee height: 953 km
apogee height: 993 km
right ascension of ascending node: 110.7069°
argument of perigee: 25.0494°
revolutions per day: 13.77381646
mean anomaly at epoch: 112.8693°
orbit number at epoch: 92594

The dashed part of the orbit path shows where the satellite is in the earth's shadow,  

DLR